This is the latest recevied weather packets stored in our database for station/object UR7D-12. If no packets are shown the sender has not sent any weather packets the latest 10 day(s).
| Time | Temp. | Humidity | Pressure | Rain* | Wind** | Luminosity | Snow |
|---|---|---|---|---|---|---|---|
| 1777930837 | 14.44° C | 51% | 990.4 hPa | 0 mm | - | - | - |
| 1777930540 | 14.44° C | 51% | 990.3 hPa | 0 mm | - | - | - |
| 1777929936 | 15° C | 50% | 990.4 hPa | 0 mm | - | - | - |
| 1777928738 | 15° C | 49% | 990.2 hPa | 0 mm | - | - | - |
| 1777928435 | 15.56° C | 49% | 990.3 hPa | 0 mm | - | - | - |
| 1777928135 | 15.56° C | 49% | 990.2 hPa | 0 mm | - | - | - |
| 1777927834 | 15.56° C | 48% | 990.3 hPa | 0 mm | - | - | - |
| 1777927235 | 16.11° C | 47% | 990.2 hPa | 0 mm | - | - | - |
| 1777926933 | 16.11° C | 47% | 990.2 hPa | 0 mm | - | - | - |
| 1777926633 | 16.67° C | 45% | 990.1 hPa | 0 mm | - | - | - |
| 1777926338 | 17.22° C | 45% | 990.1 hPa | 0 mm | - | - | - |
| 1777926036 | 17.22° C | 44% | 990.1 hPa | 0 mm | - | - | - |
| 1777925733 | 17.78° C | 43% | 990.1 hPa | 0 mm | - | - | - |
| 1777925433 | 17.78° C | 42% | 990.1 hPa | 0 mm | - | - | - |
| 1777925132 | 17.78° C | 43% | 990.1 hPa | 0 mm | - | - | - |
| 1777924833 | 17.78° C | 42% | 990.1 hPa | 0 mm | - | - | - |
| 1777924531 | 17.78° C | 42% | 990.1 hPa | 0 mm | - | - | - |
| 1777924231 | 17.78° C | 42% | 990.1 hPa | 0 mm | - | - | - |
| 1777923932 | 17.78° C | 41% | 990.2 hPa | 0 mm | - | - | - |
| 1777923330 | 18.33° C | 40% | 990.1 hPa | 0 mm | - | - | - |
| 1777923031 | 18.33° C | 39% | 990.1 hPa | 0 mm | - | - | - |
| 1777922730 | 18.89° C | 39% | 990.3 hPa | 0 mm | - | - | - |
| 1777922129 | 18.89° C | 38% | 990.2 hPa | 0 mm | - | - | - |
| 1777921830 | 19.44° C | 37% | 990.2 hPa | 0 mm | - | - | - |
| 1777921531 | 19.44° C | 37% | 990.3 hPa | 0 mm | - | - | - |
* Rain latest hour (hover to see other rain measurements)
** Current wind speed in m/s (hover to see current wind gust speed)